Torna al catalogo

STARLINK-31935

AttivoComunicazioniVLEO
NORAD 59876·PAYLOAD·🇺🇸 United States

Lanciato May 24, 2024 da Cape Canaveral Space Force Station

Loading…

Prossimi Passaggi (prossime 24 ore)

TLE

AggiornatoSource: CelesTrak SupGP

Epoca: Sep 14, 2026, 22:21 UTC

1 59876C 24098U   26257.93173611  .00021870  00000+0  79227-3 0  2575
2 59876  43.0001 289.4824 0001468 263.7064 167.9952 15.27561852    11

Traccia STARLINK-31935 in tempo reale con AllMySat

Download on the App Store